EA5BZ Weather Reports


time (UTC)temp
F
wind
direction
speed
knots
gust
knots
rain 1hr
in
rain 24hr
in
rain mn
in
humidity
%
barometer
mb
20260507142036 66 90 11.3 14.8 0.00 0.00 0.00 68 1011.0
20260507141516 67 90 9.6 15.6 0.00 0.00 0.00 70 1010.9
20260507141035 66 90 9.6 15.6 0.00 0.00 0.00 70 1010.9
20260507140515 66 90 9.6 13.0 0.00 0.00 0.00 69 1011.0
20260507140016 66 90 8.7 14.8 0.00 0.00 0.00 70 1011.0
20260507135516 66 90 11.3 15.6 0.00 0.00 0.00 71 1011.0
20260507135016 66 90 11.3 16.5 0.00 0.00 0.00 71 1011.1
20260507134516 66 90 10.4 14.8 0.00 0.00 0.00 70 1011.0
20260507134016 66 68 11.3 16.5 0.00 0.00 0.00 69 1011.1
20260507133516 66 90 11.3 16.5 0.00 0.00 0.00 68 1011.1
20260507133035 67 90 13.0 18.2 0.00 0.00 0.00 67 1011.2
20260507132515 67 90 12.2 17.4 0.00 0.00 0.00 65 1011.2
20260507132036 67 90 10.4 15.6 0.00 0.00 0.00 64 1011.3
20260507131515 67 68 12.2 16.5 0.00 0.00 0.00 64 1011.3
20260507131015 67 90 10.4 17.4 0.00 0.00 0.00 63 1011.4
20260507130515 68 68 13.9 18.2 0.00 0.00 0.00 64 1011.4
20260507130015 68 90 12.2 17.4 0.00 0.00 0.00 63 1011.5
20260507125515 68 68 15.6 20.9 0.00 0.00 0.00 64 1011.6
20260507125015 68 90 13.9 17.4 0.00 0.00 0.00 63 1011.6
20260507124515 68 68 13.9 20.0 0.00 0.00 0.00 63 1011.7
20260507124015 68 68 12.2 18.2 0.00 0.00 0.00 63 1011.6
20260507123535 68 68 12.2 18.2 0.00 0.00 0.00 62 1011.6
20260507123035 68 68 11.3 17.4 0.00 0.00 0.00 63 1011.7
20260507122535 68 68 12.2 17.4 0.00 0.00 0.00 63 1011.8
20260507122015 68 90 11.3 17.4 0.00 0.00 0.00 63 1011.9
20260507121515 68 90 14.8 19.1 0.00 0.00 0.00 65 1011.9
20260507121015 68 90 13.9 19.1 0.00 0.00 0.00 65 1011.9
20260507120515 68 90 12.2 20.0 0.00 0.00 0.00 64 1012.0
20260507120015 68 90 10.4 14.8 0.00 0.00 0.00 64 1011.9
20260507115515 68 68 12.2 18.2 0.00 0.00 0.00 63 1011.9
20260507115015 68 90 12.2 18.2 0.00 0.00 0.00 63 1011.9
20260507114515 68 68 13.0 18.2 0.00 0.00 0.00 61 1011.9
20260507114035 68 68 12.2 18.2 0.00 0.00 0.00 62 1012.0
20260507113517 68 68 9.6 15.6 0.00 0.00 0.00 63 1012.0
20260507113017 68 68 9.6 16.5 0.00 0.00 0.00 64 1012.1
20260507112517 68 68 10.4 18.2 0.00 0.00 0.00 66 1012.2
20260507112017 68 45 9.6 16.5 0.00 0.00 0.00 65 1012.4
20260507111515 68 90 10.4 17.4 0.00 0.00 0.00 65 1012.4
20260507111037 67 68 9.6 17.4 0.00 0.00 0.00 64 1012.5
20260507110517 68 45 10.4 18.2 0.00 0.00 0.00 64 1012.5
20260507110057 68 68 12.2 19.1 0.00 0.00 0.00 64 1012.5
20260507105517 67 68 11.3 17.4 0.00 0.00 0.00 65 1012.5
20260507105017 67 68 12.2 19.1 0.00 0.00 0.00 66 1012.6
20260507104517 67 68 8.7 16.5 0.00 0.00 0.00 66 1012.6
20260507104017 67 68 12.2 19.1 0.00 0.00 0.00 67 1012.5
20260507103517 67 68 13.9 20.0 0.00 0.00 0.00 67 1012.7
20260507103017 67 68 10.4 18.2 0.00 0.00 0.00 67 1012.7
20260507102517 67 68 10.4 16.5 0.00 0.00 0.00 68 1012.7
20260507102017 67 68 10.4 18.2 0.00 0.00 0.00 69 1012.7
20260507101517 67 68 10.4 18.2 0.00 0.00 0.00 68 1012.6
20260507101017 67 68 10.4 17.4 0.00 0.00 0.00 68 1012.6
20260507100517 67 68 8.7 20.0 0.00 0.00 0.00 69 1012.6
20260507100017 67 68 11.3 20.0 0.00 0.00 0.00 68 1012.7
20260507095517 66 68 11.3 18.2 0.00 0.00 0.00 69 1012.7
20260507095017 67 68 11.3 18.2 0.00 0.00 0.00 69 1012.7
20260507094517 66 68 10.4 18.2 0.00 0.00 0.00 70 1012.8
20260507094017 66 68 8.7 17.4 0.00 0.00 0.00 70 1012.8
20260507093537 67 68 8.7 14.8 0.00 0.00 0.00 70 1012.9
20260507093037 67 68 7.8 17.4 0.00 0.00 0.00 70 1012.9
20260507092517 66 45 9.6 16.5 0.00 0.00 0.00 70 1012.9
20260507092017 67 90 7.8 13.9 0.00 0.00 0.00 69 1012.9
20260507091517 67 68 8.7 13.9 0.00 0.00 0.00 69 1013.1
20260507091017 66 68 7.0 12.2 0.00 0.00 0.00 69 1012.9
20260507090517 66 68 9.6 15.6 0.00 0.00 0.00 69 1012.8
20260507090017 66 68 8.7 15.6 0.00 0.00 0.00 69 1012.9
20260507085537 66 68 7.0 18.2 0.00 0.00 0.00 70 1012.9
20260507085017 66 68 7.8 18.2 0.00 0.00 0.00 69 1012.9
20260507084517 66 68 8.7 14.8 0.00 0.00 0.00 69 1012.9
20260507084017 66 68 9.6 17.4 0.00 0.00 0.00 70 1012.9
20260507083537 66 68 10.4 17.4 0.00 0.00 0.00 69 1012.9
20260507083017 66 68 10.4 16.5 0.00 0.00 0.00 69 1012.8
20260507082517 66 68 8.7 15.6 0.00 0.00 0.00 70 1012.8
20260507082017 66 90 4.3 7.8 0.00 0.00 0.00 70 1012.8
20260507081517 66 68 7.8 14.8 0.00 0.00 0.00 69 1012.9
20260507081017 66 68 10.4 16.5 0.00 0.00 0.00 68 1012.9
20260507080517 66 68 8.7 15.6 0.00 0.00 0.00 68 1012.9
20260507080017 66 45 6.1 11.3 0.00 0.00 0.00 67 1012.8
20260507075517 66 45 5.2 9.6 0.00 0.00 0.00 67 1012.8
20260507075017 66 68 4.3 12.2 0.00 0.00 0.00 68 1012.7
20260507074517 66 68 7.0 15.6 0.00 0.00 0.00 68 1012.6
20260507074017 66 45 7.8 13.0 0.00 0.00 0.00 68 1012.4
20260507073517 65 68 4.3 8.7 0.00 0.00 0.00 68 1012.4
20260507073017 65 45 7.0 15.6 0.00 0.00 0.00 68 1012.4
20260507072517 65 23 7.8 13.0 0.00 0.00 0.00 67 1012.3
20260507072017 65 45 5.2 13.0 0.00 0.00 0.00 67 1012.3
20260507071537 65 45 1.7 11.3 0.00 0.00 0.00 68 1012.3
20260507071017 65 23 4.3 11.3 0.00 0.00 0.00 67 1012.3
20260507070537 65 23 6.1 12.2 0.00 0.00 0.00 68 1012.2
20260507070017 64 23 2.6 7.8 0.00 0.00 0.00 69 1012.2
20260507065517 64 23 2.6 7.8 0.00 0.00 0.00 70 1012.1
20260507065017 63 0 2.6 7.8 0.00 0.00 0.00 70 1012.1
20260507064516 63 23 0.9 3.5 0.00 0.00 0.00 72 1012.1
20260507064037 63 0 1.7 6.1 0.00 0.00 0.00 72 1012.2
20260507063516 63 23 1.7 4.3 0.00 0.00 0.00 73 1012.3
20260507063017 62 23 1.7 4.3 0.00 0.00 0.00 73 1012.2
20260507062517 62 23 2.6 7.0 0.00 0.00 0.00 74 1012.2
20260507062017 61 23 1.7 7.0 0.00 0.00 0.00 75 1012.2
20260507061536 61 0 2.6 4.3 0.00 0.00 0.00 75 1012.2
20260507061017 61 0 2.6 4.3 0.00 0.00 0.00 76 1012.1
20260507060516 60 338 2.6 5.2 0.00 0.00 0.00 77 1012.1
20260507060017 60 338 2.6 4.3 0.00 0.00 0.00 78 1012.1
20260507055517 60 315 1.7 3.5 0.00 0.00 0.00 78 1012.2
20260507055016 60 293 0.9 2.6 0.00 0.00 0.00 79 1012.2
20260507054516 60 293 1.7 2.6 0.00 0.00 0.00 79 1012.2
20260507054016 60 315 0.9 1.7 0.00 0.00 0.00 79 1012.3
20260507053517 60 315 0.9 2.6 0.00 0.00 0.00 79 1012.2
20260507053016 60 315 0.9 2.6 0.00 0.00 0.00 79 1012.2
20260507052537 60 315 0.9 2.6 0.00 0.00 0.00 79 1012.1
20260507052017 60 315 0.9 2.6 0.00 0.00 0.00 78 1012.1
20260507051517 60 315 1.7 3.5 0.00 0.00 0.00 78 1011.9
20260507051037 60 315 1.7 2.6 0.00 0.00 0.00 78 1011.9
20260507050536 60 338 1.7 3.5 0.00 0.00 0.00 78 1011.8
20260507050016 59 315 1.7 3.5 0.00 0.00 0.00 78 1011.8
20260507045516 60 338 1.7 3.5 0.00 0.00 0.00 78 1011.7
20260507045036 60 338 1.7 3.5 0.00 0.00 0.00 77 1011.8
20260507044516 60 338 2.6 5.2 0.00 0.00 0.00 77 1011.7
20260507044016 60 338 1.7 4.3 0.00 0.00 0.00 77 1011.6
20260507043516 60 338 1.7 4.3 0.00 0.00 0.00 78 1011.7
20260507043056 60 338 1.7 3.5 0.00 0.00 0.00 78 1011.8
20260507042516 60 338 0.9 2.6 0.00 0.00 0.00 77 1011.7
20260507042016 60 338 1.7 3.5 0.00 0.00 0.00 77 1011.7
20260507041516 60 338 1.7 3.5 0.00 0.00 0.00 77 1011.7
20260507041016 60 338 1.7 2.6 0.00 0.00 0.00 77 1011.7
20260507040518 60 338 1.7 3.5 0.00 0.00 0.00 77 1011.7
20260507040017 60 338 1.7 3.5 0.00 0.00 0.00 77 1011.6
20260507035516 60 338 1.7 3.5 0.00 0.00 0.00 77 1011.6
20260507035037 60 338 1.7 4.3 0.00 0.00 0.00 76 1011.5
20260507034516 60 0 2.6 4.3 0.00 0.00 0.00 76 1011.5
20260507034036 60 0 1.7 4.3 0.00 0.00 0.00 76 1011.5
20260507033516 60 23 1.7 4.3 0.00 0.00 0.00 76 1011.5
20260507033016 60 23 1.7 6.1 0.00 0.00 0.00 76 1011.6
20260507032516 60 23 1.7 5.2 0.00 0.00 0.00 76 1011.7
20260507032016 60 23 0.9 4.3 0.00 0.00 0.00 76 1011.6
20260507031516 60 23 1.7 4.3 0.00 0.00 0.00 76 1011.6
20260507031016 60 23 2.6 5.2 0.00 0.00 0.00 76 1011.7
20260507030516 60 0 2.6 6.1 0.00 0.00 0.00 77 1011.7
20260507030016 60 0 2.6 5.2 0.00 0.00 0.00 77 1011.8
20260507025516 60 0 1.7 3.5 0.00 0.00 0.00 77 1011.8
20260507025016 60 0 1.7 4.3 0.00 0.00 0.00 77 1011.8
20260507024516 60 0 1.7 3.5 0.00 0.00 0.00 77 1011.8
20260507024016 61 0 0.9 3.5 0.00 0.00 0.00 77 1011.8
20260507023516 61 0.0 0.9 0.00 0.00 0.00 77 1011.8
20260507023016 61 0.0 0.9 0.00 0.00 0.00 77 1011.9
20260507022516 61 0.0 0.9 0.00 0.00 0.00 77 1012.0
20260507022016 61 315 0.9 1.7 0.00 0.00 0.00 77 1012.0
20260507021517 61 0.0 1.7 0.00 0.00 0.00 76 1012.0
20260507021036 61 293 0.9 1.7 0.00 0.00 0.00 76 1012.2
20260507020516 61 315 0.9 1.7 0.00 0.00 0.00 76 1012.2
20260507020016 61 315 1.7 2.6 0.00 0.00 0.00 76 1012.1
20260507015516 61 293 1.7 2.6 0.00 0.00 0.00 76 1012.2
20260507015016 61 270 1.7 3.5 0.00 0.00 0.00 76 1012.3
20260507014516 61 315 0.9 2.6 0.00 0.00 0.00 76 1012.3
20260507014016 61 315 0.9 2.6 0.00 0.00 0.00 76 1012.2
20260507013516 61 338 1.7 3.5 0.00 0.00 0.00 76 1012.0
20260507013016 61 338 1.7 5.2 0.00 0.00 0.00 76 1012.0
20260507012516 61 338 1.7 3.5 0.00 0.00 0.00 76 1012.1
20260507012016 61 338 1.7 4.3 0.00 0.00 0.00 77 1012.2
20260507011516 61 338 1.7 3.5 0.00 0.00 0.00 77 1012.2
20260507011036 61 338 0.9 3.5 0.00 0.00 0.00 77 1012.2
20260507010536 61 338 1.7 4.3 0.00 0.00 0.00 77 1012.2
20260507010016 61 0 2.6 5.2 0.00 0.00 0.00 77 1012.2
20260507005516 61 0 2.6 4.3 0.00 0.00 0.00 77 1012.2
20260507005016 61 338 1.7 3.5 0.00 0.00 0.00 77 1012.2
20260507004516 62 338 1.7 5.2 0.00 0.00 0.00 77 1012.3
20260507004016 62 338 1.7 3.5 0.00 0.00 0.00 77 1012.4
20260507003516 61 315 0.9 2.6 0.00 0.00 0.00 78 1012.5
20260507003016 61 0 1.7 7.0 0.00 0.00 0.00 78 1012.4
20260507002516 61 0 4.3 7.0 0.00 0.00 0.00 78 1012.3
20260507002016 62 0 2.6 4.3 0.00 0.00 0.00 78 1012.4
20260507001516 62 0 2.6 6.1 0.00 0.00 0.00 78 1012.5
20260507001016 62 0 2.6 6.1 0.00 0.00 0.00 78 1012.5
20260507000516 62 0 2.6 7.0 0.00 0.00 0.00 78 1012.6
20260507000016 62 338 2.6 5.2 0.00 0.00 0.00 78 1012.7
20260506235516 62 338 2.6 6.1 0.00 0.00 0.00 78 1012.7
20260506235016 62 0 2.6 6.1 0.00 0.00 0.00 78 1012.8
20260506234516 62 0 2.6 6.1 0.00 0.00 0.00 78 1012.8
20260506234016 62 0 2.6 4.3 0.00 0.00 0.00 79 1012.8
20260506233536 62 0 2.6 6.1 0.00 0.00 0.00 79 1012.8
20260506233016 62 0 2.6 7.8 0.00 0.00 0.00 79 1012.8
20260506232516 62 0 2.6 7.8 0.00 0.00 0.00 79 1012.8
20260506232036 62 0 2.6 5.2 0.00 0.00 0.00 79 1012.8
20260506231516 62 0 2.6 7.0 0.00 0.00 0.00 79 1012.8
20260506231016 62 0 2.6 5.2 0.00 0.00 0.00 79 1012.8
20260506230616 62 0 2.6 4.3 0.00 0.00 0.00 79 1012.8
20260506230016 62 0 2.6 5.2 0.00 0.00 0.00 79 1012.9
20260506225516 62 0 3.5 7.0 0.00 0.00 0.00 79 1012.9
20260506225016 62 0 3.5 7.0 0.00 0.00 0.00 79 1012.9
20260506224516 62 0 3.5 7.0 0.00 0.00 0.00 79 1012.9
20260506224016 62 0 3.5 7.0 0.00 0.00 0.00 79 1012.8
20260506223516 62 23 3.5 7.0 0.00 0.00 0.00 79 1012.9
20260506223016 62 23 3.5 7.0 0.00 0.00 0.00 79 1012.8
20260506222516 62 0 2.6 5.2 0.00 0.00 0.00 80 1012.8
20260506222016 62 23 2.6 7.0 0.00 0.00 0.00 80 1012.8
20260506221516 62 68 1.7 4.3 0.00 0.00 0.00 80 1012.9
20260506221016 62 68 1.7 4.3 0.00 0.00 0.00 80 1013.0
20260506220515 62 45 1.7 5.2 0.00 0.00 0.00 80 1013.0
20260506220016 63 68 0.9 4.3 0.00 0.00 0.00 80 1013.0
20260506215517 63 23 0.9 3.5 0.00 0.00 0.00 79 1013.1
20260506215017 63 68 0.9 4.3 0.00 0.00 0.00 79 1013.0
20260506214517 63 45 0.9 2.6 0.00 0.00 0.00 79 1013.1
20260506214037 63 45 0.9 2.6 0.00 0.00 0.00 79 1013.2
20260506213516 63 45 0.9 2.6 0.00 0.00 0.00 79 1013.4
20260506213016 63 0.0 2.6 0.00 0.00 0.00 79 1013.4
20260506212517 63 0.0 1.7 0.00 0.00 0.00 79 1013.4
20260506212036 63 0.0 2.6 0.00 0.00 0.00 79 1013.5
20260506211517 63 0.0 2.6 0.00 0.00 0.00 79 1013.4
20260506211017 63 45 0.9 3.5 0.00 0.00 0.00 79 1013.3
20260506210516 63 45 1.7 4.3 0.00 0.00 0.00 79 1013.3
20260506210017 63 45 0.9 3.5 0.00 0.00 0.00 79 1013.2
20260506205536 63 45 1.7 3.5 0.00 0.00 0.00 79 1013.1
20260506205017 63 45 1.7 4.3 0.00 0.00 0.00 79 1013.1
20260506204516 63 68 1.7 4.3 0.00 0.00 0.00 79 1013.2
20260506204016 63 68 0.9 3.5 0.00 0.00 0.00 79 1013.2
20260506203516 63 68 0.9 2.6 0.00 0.00 0.00 79 1013.1
20260506203016 63 68 0.9 3.5 0.00 0.00 0.00 79 1013.0
20260506202517 63 68 0.9 2.6 0.00 0.00 0.00 79 1012.9
20260506202017 63 68 1.7 3.5 0.00 0.00 0.00 79 1012.9
20260506201516 63 68 1.7 3.5 0.00 0.00 0.00 78 1012.8
20260506201017 63 90 1.7 4.3 0.00 0.00 0.00 78 1012.8
20260506200537 63 90 0.9 3.5 0.00 0.00 0.00 78 1012.8
20260506200037 63 90 1.7 4.3 0.00 0.00 0.00 78 1012.6
20260506195517 63 90 0.9 2.6 0.00 0.00 0.00 78 1012.6
20260506195016 63 90 1.7 3.5 0.00 0.00 0.00 77 1012.4
20260506194517 63 90 2.6 4.3 0.00 0.00 0.00 77 1012.3
20260506194016 63 68 1.7 3.5 0.00 0.00 0.00 77 1012.4
20260506193516 63 45 2.6 6.1 0.00 0.00 0.00 77 1012.3
20260506193016 63 90 1.7 4.3 0.00 0.00 0.00 77 1012.2
20260506192537 63 68 2.6 6.1 0.00 0.00 0.00 77 1012.2
20260506192016 63 68 4.3 8.7 0.00 0.00 0.00 77 1012.1
20260506191516 63 90 6.1 9.6 0.00 0.00 0.00 77 1012.0
20260506191016 63 68 5.2 9.6 0.00 0.00 0.00 77 1012.0
20260506190516 64 68 6.1 11.3 0.00 0.00 0.00 77 1012.0
20260506190017 64 68 9.6 13.9 0.00 0.00 0.00 77 1012.0
20260506185536 64 68 6.1 12.2 0.00 0.00 0.00 77 1012.0
20260506185016 64 68 7.0 11.3 0.00 0.00 0.00 77 1011.9
20260506184536 64 68 7.8 11.3 0.00 0.00 0.00 77 1011.9
20260506184016 64 68 4.3 12.2 0.00 0.00 0.00 77 1011.8
20260506183516 64 68 6.1 13.0 0.00 0.00 0.00 76 1011.8
20260506183016 64 68 7.0 13.0 0.00 0.00 0.00 76 1011.7
20260506182516 64 90 7.8 13.9 0.00 0.00 0.00 76 1011.7
20260506182016 64 68 11.3 15.6 0.00 0.00 0.00 75 1011.6
20260506181516 64 90 8.7 13.9 0.00 0.00 0.00 74 1011.6
20260506181036 64 68 10.4 15.6 0.00 0.00 0.00 74 1011.5
20260506180516 64 68 10.4 15.6 0.00 0.00 0.00 74 1011.6
20260506180016 64 90 7.0 13.0 0.00 0.00 0.00 74 1011.6
20260506175516 64 68 7.8 12.2 0.00 0.00 0.00 76 1011.7
20260506175016 64 68 7.0 10.4 0.00 0.00 0.00 76 1011.6
20260506174516 64 68 9.6 13.9 0.00 0.00 0.00 76 1011.6
20260506174016 65 68 9.6 13.9 0.00 0.00 0.00 76 1011.6
20260506173517 65 68 8.7 13.9 0.00 0.00 0.00 75 1011.7
20260506173056 65 68 9.6 15.6 0.00 0.00 0.00 75 1011.7
20260506172516 65 68 11.3 16.5 0.00 0.00 0.00 75 1011.6
20260506172016 65 90 10.4 16.5 0.00 0.00 0.00 75 1011.5
20260506171516 65 68 10.4 16.5 0.00 0.00 0.00 76 1011.5
20260506171017 65 68 13.0 19.1 0.00 0.00 0.00 75 1011.5
20260506170516 65 68 12.2 19.1 0.00 0.00 0.00 75 1011.4
20260506170016 65 68 9.6 16.5 0.00 0.00 0.00 75 1011.4
20260506165516 65 68 9.6 14.8 0.00 0.00 0.00 74 1011.4
20260506165016 65 68 10.4 18.2 0.00 0.00 0.00 75 1011.5
20260506164516 65 90 13.0 20.0 0.00 0.00 0.00 75 1011.3
20260506164016 65 68 10.4 17.4 0.00 0.00 0.00 74 1011.4
20260506163516 65 90 11.3 18.2 0.00 0.00 0.00 74 1011.4
20260506163036 66 68 14.8 20.0 0.00 0.00 0.00 73 1011.4
20260506162536 66 68 13.0 17.4 0.00 0.00 0.00 73 1011.3
20260506162016 66 90 13.9 20.0 0.00 0.00 0.00 73 1011.4
20260506161516 66 68 13.0 18.2 0.00 0.00 0.00 73 1011.4
20260506161036 66 68 13.0 20.9 0.00 0.00 0.00 71 1011.4
20260506160516 66 90 15.6 20.9 0.00 0.00 0.00 71 1011.2
20260506160016 67 90 13.0 18.2 0.00 0.00 0.00 70 1011.2
20260506155516 66 68 11.3 17.4 0.00 0.00 0.00 71 1011.1
20260506155016 67 68 13.0 20.9 0.00 0.00 0.00 70 1011.1
20260506154516 67 68 13.0 19.1 0.00 0.00 0.00 69 1011.2
20260506154016 67 90 11.3 17.4 0.00 0.00 0.00 70 1011.2
20260506153516 67 90 13.9 20.0 0.00 0.00 0.00 69 1011.2
20260506153016 67 90 13.9 19.1 0.00 0.00 0.00 69 1011.2
20260506152517 67 90 13.0 21.7 0.00 0.00 0.00 69 1011.3
20260506152016 67 90 12.2 18.2 0.00 0.00 0.00 69 1011.3
20260506151516 68 68 11.3 20.9 0.00 0.00 0.00 67 1011.3
20260506151016 68 68 12.2 19.1 0.00 0.00 0.00 68 1011.3
20260506150516 67 90 13.0 18.2 0.00 0.00 0.00 69 1011.3
20260506150016 67 90 14.8 21.7 0.00 0.00 0.00 69 1011.3
20260506145516 67 90 15.6 24.3 0.00 0.00 0.00 69 1011.4
20260506145016 67 68 13.0 20.9 0.00 0.00 0.00 68 1011.5
20260506144516 67 68 13.0 22.6 0.00 0.00 0.00 69 1011.5
20260506144016 67 68 14.8 20.9 0.00 0.00 0.00 69 1011.5
20260506143516 67 68 13.0 21.7 0.00 0.00 0.00 68 1011.7
20260506143016 67 68 13.0 20.9 0.00 0.00 0.00 69 1011.7
20260506142516 67 68 12.2 18.2 0.00 0.00 0.00 69 1011.7